Torna al catalogo

COSMOS 1275 DEB

AttivoPO
NORAD 42153·DEBRIS·🇷🇺 Russia

Lanciato Jun 4, 1981 da Plesetsk Cosmodrome

Loading…

Prossimi Passaggi (prossime 24 ore)

TLE

In scadenzaSource: Space-Track

Epoca: Sep 6, 2026, 05:20 UTC

1 42153U 81053RR  26249.22262146  .00001694  00000-0  79225-3 0  9998
2 42153  82.8335  71.8661 0039188 332.8355  27.0774 14.19398608640795

Traccia COSMOS 1275 DEB in tempo reale con AllMySat

Download on the App Store